Total_Precipitation_Accumulation
0.04 0.11 0.14 0.16 0.10 0.11 0.12 0.11 0.09 0.10 0.09 0.07 0.04 0.04 0.03 0.03 0.03 0.11 0.20 0.18 0.34 0.44 0.48 0.60 0.65 0.63 0.58 0.49 0.40 0.41 0.53 0.55 0.47 0.33 0.22 0.16 0.15 0.14 0.07 0.02 0.00 0.00 0.00
0.08 0.13 0.16 0.18 0.12 0.12 0.16 0.18 0.14 0.21 0.14 0.09 0.06 0.02 0.01 0.01 0.01 0.02 0.08 0.10 0.14 0.23 0.27 0.41 0.59 0.60 0.58 0.56 0.41 0.34 0.47 0.60 0.56 0.40 0.27 0.21 0.21 0.21 0.15 0.06 0.02 0.01 0.00
0.14 0.15 0.16 0.17 0.19 0.17 0.23 0.24 0.22 0.21 0.14 0.10 0.08 0.03 0.02 0.02 0.02 0.01 0.01 0.03 0.04 0.06 0.13 0.26 0.41 0.49 0.46 0.50 0.50 0.43 0.49 0.66 0.69 0.54 0.37 0.28 0.28 0.28 0.23 0.14 0.06 0.03 0.01
0.16 0.21 0.17 0.17 0.22 0.24 0.29 0.32 0.29 0.23 0.20 0.12 0.06 0.03 0.03 0.05 0.03 0.02 0.01 0.01 0.02 0.02 0.06 0.15 0.31 0.39 0.44 0.54 0.67 0.69 0.66 0.71 0.81 0.79 0.64 0.48 0.43 0.40 0.32 0.22 0.13 0.06 0.03
0.23 0.33 0.24 0.22 0.19 0.26 0.28 0.18 0.27 0.27 0.26 0.18 0.04 0.03 0.05 0.08 0.06 0.05 0.03 0.02 0.02 0.02 0.03 0.10 0.21 0.23 0.32 0.50 0.70 0.82 0.90 0.97 1.04 1.21 1.23 1.06 0.95 0.74 0.52 0.35 0.22 0.12 0.07
0.33 0.41 0.33 0.27 0.21 0.31 0.33 0.23 0.27 0.26 0.22 0.16 0.04 0.04 0.05 0.05 0.05 0.05 0.03 0.03 0.02 0.02 0.03 0.06 0.12 0.11 0.15 0.29 0.43 0.55 0.79 1.13 1.30 1.62 1.90 1.84 1.56 1.13 0.74 0.50 0.32 0.19 0.11
0.34 0.42 0.35 0.37 0.31 0.30 0.33 0.25 0.31 0.32 0.27 0.24 0.16 0.10 0.03 0.03 0.04 0.06 0.09 0.10 0.06 0.03 0.02 0.03 0.06 0.07 0.16 0.29 0.19 0.18 0.38 0.75 1.06 1.42 2.03 2.43 2.14 1.50 0.94 0.62 0.42 0.29 0.19
0.37 0.39 0.47 0.38 0.35 0.36 0.42 0.45 0.39 0.29 0.24 0.28 0.27 0.25 0.16 0.14 0.12 0.11 0.21 0.22 0.13 0.07 0.04 0.02 0.02 0.03 0.13 0.25 0.17 0.13 0.22 0.38 0.58 0.89 1.42 2.00 2.04 1.58 1.05 0.70 0.44 0.32 0.25
0.40 0.45 0.51 0.48 0.43 0.41 0.45 0.55 0.45 0.38 0.36 0.38 0.39 0.37 0.35 0.30 0.17 0.06 0.07 0.14 0.17 0.15 0.09 0.04 0.02 0.02 0.04 0.16 0.25 0.22 0.19 0.23 0.34 0.56 0.89 1.23 1.39 1.24 0.94 0.70 0.51 0.38 0.27
0.43 0.51 0.52 0.52 0.52 0.52 0.52 0.47 0.38 0.53 0.51 0.47 0.51 0.50 0.50 0.41 0.32 0.19 0.12 0.11 0.15 0.17 0.16 0.10 0.04 0.02 0.02 0.07 0.14 0.20 0.19 0.20 0.31 0.52 0.58 0.69 0.83 0.85 0.76 0.63 0.54 0.43 0.33
0.44 0.47 0.48 0.65 0.77 0.70 0.62 0.55 0.51 0.55 0.51 0.50 0.51 0.53 0.57 0.54 0.43 0.37 0.25 0.16 0.10 0.09 0.11 0.09 0.05 0.03 0.02 0.06 0.17 0.22 0.23 0.22 0.32 0.50 0.42 0.36 0.42 0.51 0.53 0.52 0.46 0.37 0.30
0.41 0.44 0.54 0.69 0.75 0.71 0.66 0.56 0.51 0.55 0.53 0.52 0.51 0.51 0.53 0.49 0.53 0.54 0.42 0.28 0.14 0.04 0.05 0.07 0.08 0.06 0.04 0.08 0.14 0.19 0.20 0.22 0.28 0.33 0.23 0.17 0.18 0.24 0.32 0.38 0.37 0.32 0.26
0.45 0.47 0.50 0.53 0.57 0.58 0.60 0.58 0.53 0.56 0.56 0.52 0.50 0.53 0.51 0.46 0.47 0.49 0.47 0.38 0.30 0.11 0.09 0.11 0.11 0.10 0.07 0.08 0.11 0.12 0.13 0.14 0.15 0.14 0.10 0.08 0.09 0.13 0.18 0.24 0.27 0.27 0.23
0.52 0.47 0.43 0.40 0.41 0.41 0.44 0.50 0.55 0.56 0.55 0.52 0.53 0.60 0.51 0.47 0.49 0.50 0.54 0.57 0.49 0.34 0.28 0.25 0.18 0.12 0.08 0.07 0.06 0.06 0.07 0.07 0.07 0.06 0.05 0.05 0.05 0.08 0.11 0.15 0.17 0.16 0.15
0.45 0.42 0.41 0.39 0.35 0.33 0.34 0.39 0.46 0.48 0.48 0.47 0.50 0.55 0.54 0.54 0.48 0.52 0.60 0.64 0.63 0.54 0.55 0.52 0.36 0.14 0.07 0.04 0.03 0.03 0.03 0.03 0.04 0.03 0.03 0.03 0.03 0.05 0.06 0.08 0.10 0.09 0.07
0.29 0.29 0.26 0.22 0.19 0.18 0.19 0.22 0.25 0.27 0.30 0.32 0.33 0.38 0.47 0.55 0.50 0.50 0.56 0.61 0.63 0.61 0.58 0.66 0.54 0.25 0.10 0.05 0.03 0.01 0.01 0.01 0.01 0.01 0.01 0.01 0.02 0.03 0.03 0.04 0.04 0.04 0.03
0.08 0.09 0.09 0.08 0.06 0.06 0.06 0.07 0.09 0.11 0.13 0.14 0.18 0.25 0.32 0.41 0.41 0.37 0.40 0.47 0.57 0.63 0.56 0.74 0.73 0.45 0.23 0.11 0.06 0.03 0.01 0.01 0.01 0.00 0.00 0.00 0.01 0.01 0.01 0.01 0.01 0.01 0.01
0.01 0.01 0.01 0.01 0.01 0.01 0.01 0.01 0.02 0.03 0.04 0.06 0.10 0.17 0.22 0.27 0.32 0.34 0.31 0.35 0.48 0.60 0.60 0.66 0.83 0.72 0.39 0.19 0.12 0.07 0.04 0.02 0.02 0.01 0.00 0.00 0.00 0.00 0.00 0.00 0.00 0.00 0.00
0.00 0.00 0.00 0.00 0.00 0.00 0.00 0.00 0.01 0.02 0.03 0.05 0.08 0.13 0.16 0.22 0.33 0.41 0.37 0.38 0.44 0.56 0.61 0.61 0.76 0.81 0.55 0.33 0.26 0.19 0.12 0.13 0.06 0.06 0.03 0.01 0.00 0.00 0.00 0.00 0.00 0.00 0.00
0.00 0.00 0.00 0.00 0.00 0.00 0.01 0.01 0.03 0.05 0.07 0.10 0.12 0.13 0.16 0.23 0.32 0.43 0.44 0.46 0.48 0.48 0.56 0.62 0.70 0.77 0.72 0.54 0.48 0.37 0.28 0.23 0.18 0.13 0.13 0.05 0.03 0.02 0.02 0.02 0.01 0.01 0.00
0.00 0.00 0.00 0.00 0.00 0.00 0.00 0.02 0.05 0.08 0.10 0.09 0.10 0.10 0.09 0.12 0.14 0.20 0.29 0.41 0.49 0.53 0.57 0.63 0.69 0.76 0.74 0.66 0.55 0.48 0.41 0.39 0.34 0.32 0.36 0.24 0.20 0.19 0.11 0.05 0.03 0.02 0.01
0.00 0.00 0.00 0.00 0.00 0.00 0.00 0.00 0.02 0.04 0.04 0.04 0.04 0.04 0.03 0.03 0.06 0.10 0.12 0.19 0.28 0.42 0.59 0.71 0.73 0.76 0.79 0.76 0.70 0.60 0.53 0.51 0.49 0.44 0.47 0.47 0.44 0.46 0.34 0.17 0.08 0.05 0.04
0.01 0.01 0.01 0.01 0.00 0.00 0.00 0.00 0.00 0.00 0.00 0.00 0.01 0.01 0.00 0.00 0.02 0.05 0.06 0.06 0.08 0.11 0.21 0.47 0.64 0.66 0.65 0.67 0.73 0.74 0.66 0.59 0.57 0.47 0.45 0.56 0.58 0.65 0.49 0.37 0.27 0.15 0.10
0.03 0.03 0.03 0.02 0.01 0.00 0.00 0.00 0.00 0.00 0.00 0.00 0.00 0.00 0.00 0.00 0.00 0.01 0.04 0.06 0.04 0.01 0.04 0.13 0.20 0.24 0.31 0.41 0.52 0.62 0.67 0.62 0.56 0.44 0.37 0.49 0.54 0.63 0.59 0.45 0.29 0.18 0.12
0.05 0.04 0.04 0.05 0.03 0.01 0.00 0.00 0.00 0.00 0.00 0.00 0.00 0.00 0.00 0.00 0.00 0.00 0.01 0.03 0.03 0.01 0.00 0.01 0.04 0.07 0.10 0.15 0.22 0.31 0.38 0.46 0.54 0.53 0.39 0.42 0.51 0.58 0.76 0.80 0.49 0.26 0.16
0.07 0.04 0.04 0.06 0.05 0.02 0.00 0.00 0.00 0.00 0.00 0.00 0.00 0.00 0.00 0.00 0.00 0.00 0.00 0.01 0.01 0.01 0.01 0.00 0.01 0.01 0.01 0.02 0.04 0.08 0.13 0.21 0.33 0.43 0.34 0.32 0.42 0.59 0.83 0.96 0.80 0.54 0.33